DAL1271 KATL-KFLL

Flight info

Callsign DAL1271
Flight time N/A
Altitude 33000
Route SMLTZ3 WALET ZPLEN TEEKY4
Aircraft B753/M-SDE2E3FGHIJ3J4J7RWXY/LB1

Departure

Time 2026-05-01 15:29
Airport Hartsfield Jackson Atlanta International Airport (KATL)

Arrival

Time N/A
Airport Fort Lauderdale Hollywood International Airport (KFLL)
Time Latitude Longitude Altitude Speed Heading
2026-05-01 15:07 33.63761 -84.43857 1018 ft 0 kts 284°
2026-05-01 15:20 33.63756 -84.43829 1017 ft 2 kts 265°
2026-05-01 15:20 33.63760 -84.43813 1017 ft 2 kts 243°
2026-05-01 15:20 33.63769 -84.43798 1017 ft 2 kts 221°
2026-05-01 15:21 33.63781 -84.43789 1017 ft 2 kts 200°
2026-05-01 15:21 33.63793 -84.43786 1017 ft 0 kts 182°
2026-05-01 15:21 33.63798 -84.43786 1017 ft 0 kts 180°
2026-05-01 15:23 33.63791 -84.43786 1017 ft 4 kts 180°
2026-05-01 15:23 33.63760 -84.43786 1017 ft 4 kts 180°
2026-05-01 15:23 33.63725 -84.43787 1017 ft 7 kts 186°
2026-05-01 15:23 33.63679 -84.43818 1017 ft 7 kts 233°
2026-05-01 15:24 33.63665 -84.43878 1018 ft 8 kts 266°
2026-05-01 15:24 33.63664 -84.43958 1019 ft 9 kts 270°
2026-05-01 15:24 33.63664 -84.44045 1021 ft 11 kts 271°
2026-05-01 15:24 33.63664 -84.44135 1023 ft 11 kts 270°
2026-05-01 15:25 33.63664 -84.44237 1023 ft 13 kts 270°
2026-05-01 15:25 33.63664 -84.44348 1023 ft 11 kts 270°
2026-05-01 15:25 33.63664 -84.44440 1023 ft 10 kts 270°
2026-05-01 15:25 33.63664 -84.44524 1023 ft 10 kts 270°
2026-05-01 15:26 33.63664 -84.44608 1023 ft 10 kts 270°
2026-05-01 15:26 33.63662 -84.44695 1023 ft 10 kts 261°
2026-05-01 15:26 33.63622 -84.44764 1021 ft 8 kts 216°
2026-05-01 15:26 33.63580 -84.44781 1020 ft 0 kts 180°
2026-05-01 15:27 33.63569 -84.44781 1020 ft 3 kts 180°
2026-05-01 15:27 33.63535 -84.44781 1019 ft 6 kts 180°
2026-05-01 15:27 33.63491 -84.44775 1019 ft 6 kts 157°
2026-05-01 15:28 33.63473 -84.44688 1022 ft 10 kts 89°
2026-05-01 15:28 33.63473 -84.44401 1023 ft 59 kts 90°
2026-05-01 15:28 33.63473 -84.43710 1016 ft 106 kts 90°
2026-05-01 15:29 33.63484 -84.41283 1011 ft 179 kts 89°
2026-05-01 15:29 33.63488 -84.39793 1430 ft 181 kts 91°
2026-05-01 15:29 33.63060 -84.36790 2439 ft 192 kts 113°
2026-05-01 15:30 33.62020 -84.33622 3196 ft 219 kts 109°
2026-05-01 15:31 33.57864 -84.27479 5743 ft 280 kts 178°
2026-05-01 15:31 33.53889 -84.27576 7645 ft 286 kts 184°
2026-05-01 15:32 33.49880 -84.27617 9388 ft 294 kts 184°
2026-05-01 15:32 33.45779 -84.27584 11030 ft 305 kts 179°
2026-05-01 15:33 33.38770 -84.26060 12157 ft 367 kts 174°
2026-05-01 15:34 33.30697 -84.24227 14165 ft 388 kts 176°